Year,Month,Day,Hour,Minute,Value (Times are PST for temperature in C)
2012,04,16,00,00,10.20
2012,04,16,00,01,10.20
2012,04,16,00,02,10.20
2012,04,16,00,03,10.20
2012,04,16,00,04,10.20
2012,04,16,00,05,10.30
2012,04,16,00,06,10.30
2012,04,16,00,07,10.20
2012,04,16,00,08,10.20
2012,04,16,00,09,10.20
2012,04,16,00,10,10.20
2012,04,16,00,11,10.20
2012,04,16,00,12,10.20
2012,04,16,00,13,10.20
2012,04,16,00,14,10.20
2012,04,16,00,15,10.20
2012,04,16,00,16,10.10
2012,04,16,00,17,10.10
2012,04,16,00,18,10.10
2012,04,16,00,19,10.10
2012,04,16,00,20,10.10
2012,04,16,00,21,10.10
2012,04,16,00,22,10.10
2012,04,16,00,23,10.10
2012,04,16,00,24,10.00
2012,04,16,00,25,10.00
2012,04,16,00,26,10.00
2012,04,16,00,27,10.00
2012,04,16,00,28,9.90
2012,04,16,00,29,9.90
2012,04,16,00,30,9.90
2012,04,16,00,31,9.80
2012,04,16,00,32,9.80
2012,04,16,00,33,9.80
2012,04,16,00,34,9.70
2012,04,16,00,35,9.70
2012,04,16,00,36,9.70
2012,04,16,00,37,9.60
2012,04,16,00,38,9.60
2012,04,16,00,39,9.60
2012,04,16,00,40,9.60
2012,04,16,00,41,9.60
2012,04,16,00,42,9.60
2012,04,16,00,43,9.60
2012,04,16,00,44,9.60
2012,04,16,00,45,9.60
2012,04,16,00,46,9.60
2012,04,16,00,47,9.60
2012,04,16,00,48,9.60
2012,04,16,00,49,9.60
2012,04,16,00,50,9.60
2012,04,16,00,51,9.60
2012,04,16,00,52,9.60
2012,04,16,00,53,9.60
2012,04,16,00,54,9.60
2012,04,16,00,55,9.60
2012,04,16,00,56,9.60
2012,04,16,00,57,9.60
2012,04,16,00,58,9.60
2012,04,16,00,59,9.70
2012,04,16,01,00,9.70
2012,04,16,01,01,9.70
2012,04,16,01,02,9.70
2012,04,16,01,03,9.70
2012,04,16,01,04,9.70
2012,04,16,01,05,9.70
2012,04,16,01,06,9.70
2012,04,16,01,07,9.80
2012,04,16,01,08,9.80
2012,04,16,01,09,9.80
2012,04,16,01,10,9.80
2012,04,16,01,11,9.80
2012,04,16,01,12,9.80
2012,04,16,01,13,9.80
2012,04,16,01,14,9.80
2012,04,16,01,15,9.80
2012,04,16,01,16,9.80
2012,04,16,01,17,9.70
2012,04,16,01,18,9.70
2012,04,16,01,19,9.70
2012,04,16,01,20,9.80
2012,04,16,01,21,9.80
2012,04,16,01,22,9.70
2012,04,16,01,23,9.70
2012,04,16,01,24,9.70
2012,04,16,01,25,9.70
2012,04,16,01,26,9.60
2012,04,16,01,27,9.60
2012,04,16,01,28,9.60
2012,04,16,01,29,9.50
2012,04,16,01,30,9.50
2012,04,16,01,31,9.50
2012,04,16,01,32,9.40
2012,04,16,01,33,9.40
2012,04,16,01,34,9.40
2012,04,16,01,35,9.30
2012,04,16,01,36,9.30
2012,04,16,01,37,9.30
2012,04,16,01,38,9.20
2012,04,16,01,39,9.20
2012,04,16,01,40,9.20
2012,04,16,01,41,9.10
2012,04,16,01,42,9.10
2012,04,16,01,43,9.10
2012,04,16,01,44,9.10
2012,04,16,01,45,9.10
2012,04,16,01,46,9.00
2012,04,16,01,47,9.00
2012,04,16,01,48,9.00
2012,04,16,01,49,8.90
2012,04,16,01,50,8.90
2012,04,16,01,51,8.90
2012,04,16,01,52,8.90
2012,04,16,01,53,8.90
2012,04,16,01,54,8.90
2012,04,16,01,55,8.90
2012,04,16,01,56,8.80
2012,04,16,01,57,8.80
2012,04,16,01,58,8.80
2012,04,16,01,59,8.80
2012,04,16,02,00,8.80
2012,04,16,02,01,8.80
2012,04,16,02,02,8.80
2012,04,16,02,03,8.80
2012,04,16,02,04,8.80
2012,04,16,02,05,8.80
2012,04,16,02,06,8.80
2012,04,16,02,07,8.70
2012,04,16,02,08,8.70
2012,04,16,02,09,8.70
2012,04,16,02,10,8.70
2012,04,16,02,11,8.70
2012,04,16,02,12,8.70
2012,04,16,02,13,8.60
2012,04,16,02,14,8.60
2012,04,16,02,15,8.60
2012,04,16,02,16,8.60
2012,04,16,02,17,8.60
2012,04,16,02,18,8.60
2012,04,16,02,19,8.60
2012,04,16,02,20,8.50
2012,04,16,02,21,8.50
2012,04,16,02,22,8.50
2012,04,16,02,23,8.50
2012,04,16,02,24,8.40
2012,04,16,02,25,8.40
2012,04,16,02,26,8.40
2012,04,16,02,27,8.40
2012,04,16,02,28,8.40
2012,04,16,02,29,8.30
2012,04,16,02,30,8.30
2012,04,16,02,31,8.30
2012,04,16,02,32,8.30
2012,04,16,02,33,8.30
2012,04,16,02,34,8.30
2012,04,16,02,35,8.30
2012,04,16,02,36,8.20
2012,04,16,02,37,8.20
2012,04,16,02,38,8.20
2012,04,16,02,39,8.20
2012,04,16,02,40,8.20
2012,04,16,02,41,8.20
2012,04,16,02,42,8.20
2012,04,16,02,43,8.20
2012,04,16,02,44,8.20
2012,04,16,02,45,8.20
2012,04,16,02,46,8.20
2012,04,16,02,47,8.20
2012,04,16,02,48,8.20
2012,04,16,08,27,6.80
2012,04,16,08,28,6.80
2012,04,16,08,29,6.80
2012,04,16,08,30,6.80
2012,04,16,08,31,6.80
2012,04,16,08,32,6.80
2012,04,16,08,33,6.80
2012,04,16,08,34,6.80
2012,04,16,08,35,6.90
2012,04,16,08,36,6.90
2012,04,16,08,37,6.90
2012,04,16,08,38,6.90
2012,04,16,08,39,6.90
2012,04,16,08,40,6.90
2012,04,16,08,41,6.90
2012,04,16,08,42,6.90
2012,04,16,08,43,6.90
2012,04,16,08,44,6.90
2012,04,16,08,45,6.90
2012,04,16,08,46,6.90
2012,04,16,08,47,6.90
2012,04,16,08,48,6.90
2012,04,16,08,49,6.90
2012,04,16,08,50,6.90
2012,04,16,08,51,6.90
2012,04,16,08,52,6.90
2012,04,16,08,53,6.90
2012,04,16,08,54,6.90
2012,04,16,08,55,6.90
2012,04,16,08,56,6.90
2012,04,16,08,57,6.90
2012,04,16,08,58,6.90
2012,04,16,08,59,6.90
2012,04,16,09,00,7.00
2012,04,16,09,01,7.00
2012,04,16,09,02,7.00
2012,04,16,09,03,7.00
2012,04,16,09,04,7.00
2012,04,16,09,05,7.00
2012,04,16,09,06,7.00
2012,04,16,09,07,7.10
2012,04,16,09,08,7.10
2012,04,16,09,09,7.00
2012,04,16,09,10,7.10
2012,04,16,09,11,7.10
2012,04,16,09,12,7.10
2012,04,16,09,13,7.10
2012,04,16,09,14,7.10
2012,04,16,09,15,7.10
2012,04,16,09,16,7.00
2012,04,16,09,17,7.00
2012,04,16,09,18,7.00
2012,04,16,09,19,7.10
2012,04,16,09,20,7.10
2012,04,16,09,21,7.00
2012,04,16,09,22,7.00
2012,04,16,09,23,7.10
2012,04,16,09,24,7.10
2012,04,16,09,25,7.10
2012,04,16,09,26,7.10
2012,04,16,09,27,7.10
2012,04,16,09,28,7.10
2012,04,16,09,29,7.10
2012,04,16,09,30,7.10
2012,04,16,09,31,7.10
2012,04,16,09,32,7.10
2012,04,16,09,33,7.10
2012,04,16,09,34,7.10
2012,04,16,09,35,7.10
2012,04,16,09,36,7.10
2012,04,16,09,37,7.20
2012,04,16,09,38,7.20
2012,04,16,09,39,7.20
2012,04,16,09,40,7.20
2012,04,16,09,41,7.20
2012,04,16,09,42,7.20
2012,04,16,09,43,7.10
2012,04,16,09,44,7.10
2012,04,16,09,45,7.20
2012,04,16,09,46,7.20
2012,04,16,09,47,7.20
2012,04,16,09,48,7.20
2012,04,16,09,49,7.20
2012,04,16,09,50,7.20
2012,04,16,09,51,7.20
2012,04,16,09,52,7.20
2012,04,16,09,53,7.20
2012,04,16,09,54,7.20
2012,04,16,09,55,7.20
2012,04,16,09,56,7.20
2012,04,16,09,57,7.20
2012,04,16,09,58,7.30
2012,04,16,09,59,7.30
2012,04,16,10,00,7.30
2012,04,16,10,01,7.30
2012,04,16,10,02,7.40
2012,04,16,10,03,7.40
2012,04,16,10,04,7.30
2012,04,16,10,05,7.30
2012,04,16,10,06,7.40
2012,04,16,10,07,7.40
2012,04,16,10,08,7.30
2012,04,16,10,09,7.30
2012,04,16,10,10,7.40
2012,04,16,10,11,7.40
2012,04,16,10,12,7.40
2012,04,16,10,13,7.40
2012,04,16,10,14,7.40
2012,04,16,10,15,7.40
2012,04,16,10,16,7.40
2012,04,16,10,17,7.40
2012,04,16,10,18,7.40
2012,04,16,10,19,7.40
2012,04,16,10,20,7.40
2012,04,16,10,21,7.40
2012,04,16,10,22,7.40
2012,04,16,10,23,7.50
2012,04,16,10,24,7.50
2012,04,16,10,25,7.50
2012,04,16,10,26,7.50
2012,04,16,10,27,7.60
2012,04,16,10,28,7.60
2012,04,16,10,29,7.60
2012,04,16,10,30,7.60
2012,04,16,10,31,7.60
2012,04,16,10,32,7.60
2012,04,16,10,33,7.60
2012,04,16,10,34,7.60
2012,04,16,10,35,7.60
2012,04,16,10,36,7.70
2012,04,16,10,37,7.70
2012,04,16,10,38,7.70
2012,04,16,10,39,7.70
2012,04,16,10,40,7.80
2012,04,16,10,41,7.70
2012,04,16,10,42,7.70
2012,04,16,10,43,7.70
2012,04,16,10,44,7.70
2012,04,16,10,45,7.80
2012,04,16,10,46,7.80
2012,04,16,10,47,7.80
2012,04,16,10,48,7.80
2012,04,16,10,49,7.80
2012,04,16,10,50,7.80
2012,04,16,10,51,7.80
2012,04,16,10,52,7.80
2012,04,16,10,53,7.80
2012,04,16,10,54,7.80
2012,04,16,10,55,7.80
2012,04,16,10,56,7.80
2012,04,16,10,57,7.80
2012,04,16,10,58,7.80
2012,04,16,10,59,7.80
2012,04,16,11,00,7.80
2012,04,16,11,01,7.80
2012,04,16,11,02,7.80
2012,04,16,11,03,7.80
2012,04,16,11,04,7.90
2012,04,16,11,05,7.80
2012,04,16,11,06,7.90
2012,04,16,11,07,7.80
2012,04,16,11,08,7.90
2012,04,16,11,09,7.90
2012,04,16,11,10,7.90
2012,04,16,11,11,7.90
2012,04,16,11,12,7.90
2012,04,16,11,13,7.90
2012,04,16,11,14,7.90
2012,04,16,11,15,7.90
2012,04,16,11,16,7.90
2012,04,16,11,17,7.90
2012,04,16,11,18,7.90
2012,04,16,11,19,8.00
2012,04,16,11,20,8.00
2012,04,16,11,21,7.90
2012,04,16,11,22,7.90
2012,04,16,11,23,7.90
2012,04,16,11,24,7.90
2012,04,16,11,25,7.90
2012,04,16,11,26,7.90
2012,04,16,11,27,7.90
2012,04,16,11,28,8.00
2012,04,16,11,29,8.00
2012,04,16,11,30,8.00
2012,04,16,11,31,8.00
2012,04,16,11,32,8.00
2012,04,16,11,33,8.00
2012,04,16,11,34,8.10
2012,04,16,11,35,8.10
2012,04,16,11,36,8.10
2012,04,16,11,37,8.10
2012,04,16,11,38,8.10
2012,04,16,11,39,8.20
2012,04,16,11,40,8.20
2012,04,16,11,41,8.30
2012,04,16,11,42,8.30
2012,04,16,11,43,8.30
2012,04,16,11,44,8.30
2012,04,16,11,45,8.30
2012,04,16,11,46,8.40
2012,04,16,11,47,8.40
2012,04,16,11,48,8.40
2012,04,16,11,49,8.40
2012,04,16,11,50,8.40
2012,04,16,11,51,8.40
2012,04,16,11,52,8.50
2012,04,16,11,53,8.50
2012,04,16,11,54,8.60
2012,04,16,11,55,8.70
2012,04,16,11,56,8.70
2012,04,16,11,57,8.80
2012,04,16,11,58,8.80
2012,04,16,11,59,8.80
2012,04,16,12,00,8.90
2012,04,16,12,01,8.90
2012,04,16,12,02,9.00
2012,04,16,12,03,9.10
2012,04,16,12,04,9.10
2012,04,16,12,05,9.10
2012,04,16,12,06,9.10
2012,04,16,12,07,9.20
2012,04,16,12,08,9.20
2012,04,16,12,09,9.10
2012,04,16,12,10,9.20
2012,04,16,12,11,9.20
2012,04,16,12,12,9.20
2012,04,16,12,13,9.20
2012,04,16,12,14,9.20
2012,04,16,12,15,9.30
2012,04,16,12,16,9.30
2012,04,16,12,17,9.40
2012,04,16,12,18,9.50
2012,04,16,12,19,9.60
2012,04,16,12,20,9.70
2012,04,16,12,21,9.80
2012,04,16,12,22,9.80
2012,04,16,12,23,9.80
2012,04,16,12,24,9.90
2012,04,16,12,25,9.90
2012,04,16,12,26,10.00
2012,04,16,12,27,10.10
2012,04,16,12,28,10.20
2012,04,16,12,29,10.40
2012,04,16,12,30,10.50
2012,04,16,12,31,10.60
2012,04,16,12,32,10.60
2012,04,16,12,33,10.70
2012,04,16,12,34,10.70
2012,04,16,12,35,10.70
2012,04,16,12,36,10.80
2012,04,16,12,37,11.00
2012,04,16,12,38,11.10
2012,04,16,12,39,11.20
2012,04,16,12,40,11.30
2012,04,16,12,41,11.50
2012,04,16,12,42,11.60
2012,04,16,12,43,11.80
2012,04,16,12,44,12.00
2012,04,16,12,45,12.10
2012,04,16,12,46,12.30
2012,04,16,12,47,12.40
2012,04,16,12,48,12.40
2012,04,16,12,49,12.40
2012,04,16,12,50,12.40
2012,04,16,12,51,12.30
2012,04,16,12,52,12.30
2012,04,16,12,53,12.40
2012,04,16,12,54,12.40
2012,04,16,12,55,12.50
2012,04,16,12,56,12.60
2012,04,16,12,57,12.70
2012,04,16,12,58,12.80
2012,04,16,12,59,13.00
2012,04,16,13,00,13.10
2012,04,16,13,01,13.20
2012,04,16,13,02,13.30
2012,04,16,13,03,13.40
2012,04,16,13,04,13.50
2012,04,16,13,05,13.60
2012,04,16,13,06,13.70
2012,04,16,13,07,13.70
2012,04,16,13,08,13.80
2012,04,16,13,09,13.80
2012,04,16,13,10,13.90
2012,04,16,13,11,13.90
2012,04,16,13,12,13.90
2012,04,16,13,13,13.90
2012,04,16,13,14,14.00
2012,04,16,13,15,14.20
2012,04,16,13,16,14.40
2012,04,16,13,17,14.40
2012,04,16,13,18,14.50
2012,04,16,13,19,14.60
2012,04,16,13,20,14.60
2012,04,16,13,21,14.60
2012,04,16,13,22,14.70
2012,04,16,13,23,14.60
2012,04,16,13,24,14.60
2012,04,16,13,25,14.60
2012,04,16,13,26,14.60
2012,04,16,13,27,14.50
2012,04,16,13,28,14.40
2012,04,16,13,29,14.30
2012,04,16,13,30,14.30
2012,04,16,13,31,14.40
2012,04,16,13,32,14.30
2012,04,16,13,33,14.30
2012,04,16,13,34,14.30
2012,04,16,13,35,14.40
2012,04,16,13,36,14.50
2012,04,16,13,37,14.50
2012,04,16,13,38,14.40
2012,04,16,13,39,14.20
2012,04,16,13,40,14.20
2012,04,16,13,41,14.10
2012,04,16,13,42,14.00
2012,04,16,13,43,13.90
2012,04,16,13,44,13.80
2012,04,16,13,45,13.70
2012,04,16,13,46,13.80
2012,04,16,13,47,13.70
2012,04,16,13,48,13.80
2012,04,16,13,49,13.70
2012,04,16,13,50,13.70
2012,04,16,13,51,13.70
2012,04,16,13,52,13.60
2012,04,16,13,53,13.60
2012,04,16,13,54,13.60
2012,04,16,13,55,13.70
2012,04,16,13,56,13.70
2012,04,16,13,57,13.80
2012,04,16,13,58,13.80
2012,04,16,13,59,13.90
2012,04,16,14,00,14.00
2012,04,16,14,01,14.00
2012,04,16,14,02,14.00
2012,04,16,14,03,14.10
2012,04,16,14,04,14.10
2012,04,16,14,05,14.20
2012,04,16,14,06,14.30
2012,04,16,14,07,14.40
2012,04,16,14,08,14.50
2012,04,16,14,09,14.40
2012,04,16,14,10,14.20
2012,04,16,14,11,14.00
2012,04,16,14,12,13.90
2012,04,16,14,13,13.70
2012,04,16,14,14,13.70
2012,04,16,14,15,13.60
2012,04,16,14,16,13.60
2012,04,16,14,17,13.60
2012,04,16,14,18,13.60
2012,04,16,14,19,13.60
2012,04,16,14,20,13.70
2012,04,16,14,21,13.70
2012,04,16,14,22,13.60
2012,04,16,14,23,13.60
2012,04,16,14,24,13.60
2012,04,16,14,25,13.60
2012,04,16,14,26,13.70
2012,04,16,14,27,13.70
2012,04,16,14,28,13.80
2012,04,16,14,29,13.70
2012,04,16,14,30,13.70
2012,04,16,14,31,13.70
2012,04,16,14,32,13.70
2012,04,16,14,33,13.70
2012,04,16,14,34,13.70
2012,04,16,14,35,13.70
2012,04,16,14,36,13.60
2012,04,16,14,37,13.60
2012,04,16,14,38,13.50
2012,04,16,14,39,13.50
2012,04,16,14,40,13.40
2012,04,16,14,41,13.40
2012,04,16,14,42,13.40
2012,04,16,14,43,13.50
2012,04,16,14,44,13.50
2012,04,16,14,45,13.50
2012,04,16,14,46,13.60
2012,04,16,14,47,13.60
2012,04,16,14,48,13.50
2012,04,16,14,49,13.40
2012,04,16,14,50,13.30
2012,04,16,14,51,13.30
2012,04,16,14,52,13.40
2012,04,16,14,53,13.40
2012,04,16,14,54,13.40
2012,04,16,14,55,13.30
2012,04,16,14,56,13.30
2012,04,16,14,57,13.20
2012,04,16,14,58,13.10
2012,04,16,14,59,13.10
2012,04,16,15,00,13.10
2012,04,16,15,01,13.10
2012,04,16,15,02,13.20
2012,04,16,15,03,13.20
2012,04,16,15,04,13.20
2012,04,16,15,05,13.30
2012,04,16,15,06,13.30
2012,04,16,15,07,13.40
2012,04,16,15,08,13.40
2012,04,16,15,09,13.40
2012,04,16,15,10,13.40
2012,04,16,15,11,13.50
2012,04,16,15,12,13.50
2012,04,16,15,13,13.40
2012,04,16,15,14,13.40
2012,04,16,15,15,13.40
2012,04,16,15,16,13.50
2012,04,16,15,17,13.60
2012,04,16,15,18,13.60
2012,04,16,15,19,13.60
2012,04,16,15,20,13.50
2012,04,16,15,21,13.50
2012,04,16,15,22,13.60
2012,04,16,15,23,13.50
2012,04,16,15,24,13.50
2012,04,16,15,25,13.40
2012,04,16,15,26,13.40
2012,04,16,15,27,13.40
2012,04,16,15,28,13.40
2012,04,16,15,29,13.30
2012,04,16,15,30,13.30
2012,04,16,15,31,13.20
2012,04,16,15,32,13.10
2012,04,16,15,33,13.00
2012,04,16,15,34,12.90
2012,04,16,15,35,13.00
2012,04,16,15,36,13.10
2012,04,16,15,37,13.10
2012,04,16,15,38,13.20
2012,04,16,15,39,13.20
2012,04,16,15,40,13.30
2012,04,16,15,41,13.30
2012,04,16,15,42,13.20
2012,04,16,15,43,13.10
2012,04,16,15,44,13.10
2012,04,16,15,45,13.10
2012,04,16,15,46,13.10
2012,04,16,15,47,13.00
2012,04,16,15,48,13.00
2012,04,16,15,49,12.90
2012,04,16,15,50,12.80
2012,04,16,15,51,12.70
2012,04,16,15,52,12.50
2012,04,16,15,53,12.40
2012,04,16,15,54,12.20
2012,04,16,15,55,12.20
2012,04,16,15,56,12.10
2012,04,16,15,57,12.10
2012,04,16,15,58,12.10
2012,04,16,15,59,12.10
2012,04,16,16,00,12.10
2012,04,16,16,01,12.10
2012,04,16,16,02,12.10
2012,04,16,16,03,12.10
2012,04,16,16,04,12.10
2012,04,16,16,05,12.10
2012,04,16,16,06,12.10
2012,04,16,16,07,12.10
2012,04,16,16,08,12.10
2012,04,16,16,09,12.10
2012,04,16,16,10,12.10
2012,04,16,16,11,12.10
2012,04,16,16,12,12.10
2012,04,16,16,13,12.10
2012,04,16,16,14,12.00
2012,04,16,16,15,12.00
2012,04,16,16,16,12.00
2012,04,16,16,17,11.90
2012,04,16,16,18,11.90
2012,04,16,16,19,11.90
2012,04,16,16,20,11.90
2012,04,16,16,21,11.80
2012,04,16,16,22,11.80
2012,04,16,16,23,11.90
2012,04,16,16,24,11.90
2012,04,16,16,25,11.90
2012,04,16,16,26,11.90
2012,04,16,16,27,11.90
2012,04,16,16,28,11.90
2012,04,16,16,29,12.00
2012,04,16,16,30,12.00
2012,04,16,16,31,12.10
2012,04,16,16,32,12.00
2012,04,16,16,33,12.00
2012,04,16,16,34,11.90
2012,04,16,16,35,11.90
2012,04,16,16,36,11.90
2012,04,16,16,37,11.90
2012,04,16,16,38,12.00
2012,04,16,16,39,12.00
2012,04,16,16,40,12.00
2012,04,16,16,41,12.00
2012,04,16,16,42,11.90
2012,04,16,16,43,11.80
2012,04,16,16,44,11.80
2012,04,16,16,45,11.80
2012,04,16,16,46,11.80
2012,04,16,16,47,11.80
2012,04,16,16,48,11.80
2012,04,16,16,49,11.70
2012,04,16,16,50,11.70
2012,04,16,16,51,11.70
2012,04,16,16,52,11.80
2012,04,16,16,53,11.80
2012,04,16,16,54,11.70
2012,04,16,16,55,11.60
2012,04,16,16,56,11.60
2012,04,16,16,57,11.50
2012,04,16,16,58,11.50
2012,04,16,16,59,11.50
2012,04,16,17,00,11.40
2012,04,16,17,01,11.30
2012,04,16,17,02,11.20
2012,04,16,17,03,11.20
2012,04,16,17,04,11.20
2012,04,16,17,05,11.20
2012,04,16,17,06,11.30
2012,04,16,17,07,11.30
2012,04,16,17,08,11.40
2012,04,16,17,09,11.50
2012,04,16,17,10,11.50
2012,04,16,17,11,11.50
2012,04,16,17,12,11.60
2012,04,16,17,13,11.60
2012,04,16,17,14,11.60
2012,04,16,17,15,11.60
2012,04,16,17,16,11.60
2012,04,16,17,17,11.60
2012,04,16,17,18,11.60
2012,04,16,17,19,11.60
2012,04,16,17,20,11.60
2012,04,16,17,21,11.50
2012,04,16,17,22,11.50
2012,04,16,17,23,11.40
2012,04,16,17,24,11.30
2012,04,16,17,25,11.20
2012,04,16,17,26,11.10
2012,04,16,17,27,10.90
2012,04,16,17,28,10.80
2012,04,16,17,29,10.80
2012,04,16,17,30,10.70
2012,04,16,17,31,10.60
2012,04,16,17,32,10.50
2012,04,16,17,33,10.50
2012,04,16,17,34,10.40
2012,04,16,17,35,10.40
2012,04,16,17,36,10.40
2012,04,16,17,37,10.40
2012,04,16,17,38,10.40
2012,04,16,17,39,10.40
2012,04,16,17,40,10.40
2012,04,16,17,41,10.40
2012,04,16,17,42,10.40
2012,04,16,17,43,10.40
2012,04,16,17,44,10.40
2012,04,16,17,45,10.30
2012,04,16,17,46,10.30
2012,04,16,17,47,10.30
2012,04,16,17,48,10.30
2012,04,16,17,49,10.30
2012,04,16,17,50,10.30
2012,04,16,17,51,10.30
2012,04,16,17,52,10.30
2012,04,16,17,53,10.30
2012,04,16,17,54,10.30
2012,04,16,17,55,10.30
2012,04,16,17,56,10.30
2012,04,16,17,57,10.30
2012,04,16,17,58,10.30
2012,04,16,17,59,10.30
2012,04,16,18,00,10.30
2012,04,16,18,01,10.30
2012,04,16,18,02,10.30
2012,04,16,18,03,10.30
2012,04,16,18,04,10.30
2012,04,16,18,05,10.20
2012,04,16,18,06,10.20
2012,04,16,18,07,10.20
2012,04,16,18,08,10.20
2012,04,16,18,09,10.20
2012,04,16,18,10,10.20
2012,04,16,18,11,10.10
2012,04,16,18,12,10.10
2012,04,16,18,13,10.10
2012,04,16,18,14,10.00
2012,04,16,18,15,10.00
2012,04,16,18,16,10.00
2012,04,16,18,17,9.90
2012,04,16,18,18,9.90
2012,04,16,18,19,9.90
2012,04,16,18,20,9.90
2012,04,16,18,21,9.80
2012,04,16,18,22,9.80
2012,04,16,18,23,9.70
2012,04,16,18,24,9.70
2012,04,16,18,25,9.70
2012,04,16,18,26,9.60
2012,04,16,18,27,9.60
2012,04,16,18,28,9.60
2012,04,16,18,29,9.60
2012,04,16,18,30,9.50
2012,04,16,18,31,9.50
2012,04,16,18,32,9.40
2012,04,16,18,33,9.40
2012,04,16,18,34,9.40
2012,04,16,18,35,9.40
2012,04,16,18,36,9.40
2012,04,16,18,37,9.40
2012,04,16,18,38,9.40
2012,04,16,18,39,9.40
2012,04,16,18,40,9.40
2012,04,16,18,41,9.40
2012,04,16,18,42,9.40
2012,04,16,18,43,9.50
2012,04,16,18,44,9.50
2012,04,16,18,45,9.40
2012,04,16,18,46,9.40
2012,04,16,18,47,9.40
2012,04,16,18,48,9.30
2012,04,16,18,49,9.30
2012,04,16,18,50,9.30
2012,04,16,18,51,9.20
2012,04,16,18,52,9.20
2012,04,16,18,53,9.10
2012,04,16,18,54,9.10
2012,04,16,18,55,9.10
2012,04,16,18,56,9.10
2012,04,16,18,57,9.10
2012,04,16,18,58,9.10
2012,04,16,18,59,9.00
2012,04,16,19,00,9.00
2012,04,16,19,01,9.00
2012,04,16,19,02,8.90
2012,04,16,19,03,8.90
2012,04,16,19,04,8.90
2012,04,16,19,05,8.90
2012,04,16,19,06,8.90
2012,04,16,19,07,8.90
2012,04,16,19,08,8.90
2012,04,16,19,09,8.90
2012,04,16,19,10,8.90
2012,04,16,19,11,8.80
2012,04,16,19,12,8.80
2012,04,16,19,13,8.80
2012,04,16,19,14,8.80
2012,04,16,19,15,8.80
2012,04,16,19,16,8.80
2012,04,16,19,17,8.80
2012,04,16,19,18,8.80
2012,04,16,19,19,8.70
2012,04,16,19,20,8.70
2012,04,16,19,21,8.70
2012,04,16,19,22,8.70
2012,04,16,19,23,8.70
2012,04,16,19,24,8.70
2012,04,16,19,25,8.70
2012,04,16,19,26,8.70
2012,04,16,19,27,8.70
2012,04,16,19,28,8.70
2012,04,16,19,29,8.70
2012,04,16,19,30,8.70
2012,04,16,19,31,8.70
2012,04,16,19,32,8.70
2012,04,16,19,33,8.80
2012,04,16,19,34,8.80
2012,04,16,19,35,8.80
2012,04,16,19,36,8.80
2012,04,16,19,37,8.80
2012,04,16,19,38,8.80
2012,04,16,19,39,8.80
2012,04,16,19,40,8.80
2012,04,16,19,41,8.80
2012,04,16,19,42,8.70
2012,04,16,19,43,8.70
2012,04,16,19,44,8.70
2012,04,16,19,45,8.70
2012,04,16,19,46,8.60
2012,04,16,19,47,8.60
2012,04,16,19,48,8.60
2012,04,16,19,49,8.60
2012,04,16,19,50,8.60
2012,04,16,19,51,8.60
2012,04,16,19,52,8.50
2012,04,16,19,53,8.50
2012,04,16,19,54,8.50
2012,04,16,19,55,8.40
2012,04,16,19,56,8.40
2012,04,16,19,57,8.40
2012,04,16,19,58,8.40
2012,04,16,19,59,8.40
2012,04,16,20,00,8.40
2012,04,16,20,01,8.40
2012,04,16,20,02,8.40
2012,04,16,20,03,8.30
2012,04,16,20,04,8.30
2012,04,16,20,05,8.30
2012,04,16,20,06,8.30
2012,04,16,20,07,8.30
2012,04,16,20,08,8.30
2012,04,16,20,09,8.30
2012,04,16,20,10,8.30
2012,04,16,20,11,8.20
2012,04,16,20,12,8.20
2012,04,16,20,13,8.20
2012,04,16,20,14,8.20
2012,04,16,20,15,8.10
2012,04,16,20,16,8.10
2012,04,16,20,17,8.10
2012,04,16,20,18,8.00
2012,04,16,20,19,8.00
2012,04,16,20,20,7.90
2012,04,16,20,21,7.90
2012,04,16,20,22,7.90
2012,04,16,20,23,7.80
2012,04,16,20,24,7.80
2012,04,16,20,25,7.80
2012,04,16,20,26,7.80
2012,04,16,20,27,7.80
2012,04,16,20,28,7.70
2012,04,16,20,29,7.70
2012,04,16,20,30,7.80
2012,04,16,20,31,7.80
2012,04,16,20,32,7.80
2012,04,16,20,33,7.80
2012,04,16,20,34,7.80
2012,04,16,20,35,7.80
2012,04,16,20,36,7.80
2012,04,16,20,37,7.80
2012,04,16,20,38,7.80
2012,04,16,20,39,7.90
2012,04,16,20,40,7.90
2012,04,16,20,41,7.90
2012,04,16,20,42,7.90
2012,04,16,20,43,7.90
2012,04,16,20,44,7.90
2012,04,16,20,45,7.80
2012,04,16,20,46,7.80
2012,04,16,20,47,7.80
2012,04,16,20,48,7.80
2012,04,16,20,49,7.80
2012,04,16,20,50,7.70
2012,04,16,20,51,7.70
2012,04,16,20,52,7.70
2012,04,16,20,53,7.70
2012,04,16,20,54,7.70
2012,04,16,20,55,7.70
2012,04,16,20,56,7.70
2012,04,16,20,57,7.70
2012,04,16,20,58,7.70
2012,04,16,20,59,7.70
2012,04,16,21,00,7.70
2012,04,16,21,01,7.70
2012,04,16,21,02,7.80
2012,04,16,21,03,7.80
2012,04,16,21,04,7.80
2012,04,16,21,05,7.80
2012,04,16,21,06,7.80
2012,04,16,21,07,7.80
2012,04,16,21,08,7.80
2012,04,16,21,09,7.80
2012,04,16,21,10,7.80
2012,04,16,21,11,7.70
2012,04,16,21,12,7.70
2012,04,16,21,13,7.70
2012,04,16,21,14,7.70
2012,04,16,21,15,7.70
2012,04,16,21,16,7.70
2012,04,16,21,17,7.70
2012,04,16,21,18,7.70
2012,04,16,21,19,7.60
2012,04,16,21,20,7.60
2012,04,16,21,21,7.70
2012,04,16,21,22,7.70
2012,04,16,21,23,7.70
2012,04,16,21,24,7.70
2012,04,16,21,25,7.70
2012,04,16,21,26,7.70
2012,04,16,21,27,7.70
2012,04,16,21,28,7.70
2012,04,16,21,29,7.70
2012,04,16,21,30,7.80
2012,04,16,21,31,7.80
2012,04,16,21,32,7.80
2012,04,16,21,33,7.80
2012,04,16,21,34,7.80
2012,04,16,21,35,7.80
2012,04,16,21,36,7.80
2012,04,16,21,37,7.80
2012,04,16,21,38,7.70
2012,04,16,21,39,7.70
2012,04,16,21,40,7.70
2012,04,16,21,41,7.70
2012,04,16,21,42,7.70
2012,04,16,21,43,7.70
2012,04,16,21,44,7.70
2012,04,16,21,45,7.70
2012,04,16,21,46,7.70
2012,04,16,21,47,7.70
2012,04,16,21,48,7.70
2012,04,16,21,49,7.60
2012,04,16,21,50,7.60
2012,04,16,21,51,7.60
2012,04,16,21,52,7.60
2012,04,16,21,53,7.60
2012,04,16,21,54,7.50
2012,04,16,21,55,7.50
2012,04,16,21,56,7.40
2012,04,16,21,57,7.40
2012,04,16,21,58,7.40
2012,04,16,21,59,7.30
2012,04,16,22,00,7.30
2012,04,16,22,01,7.30
2012,04,16,22,02,7.20
2012,04,16,22,03,7.20
2012,04,16,22,04,7.20
2012,04,16,22,05,7.20
2012,04,16,22,06,7.20
2012,04,16,22,07,7.20
2012,04,16,22,08,7.20
2012,04,16,22,09,7.20
2012,04,16,22,10,7.20
2012,04,16,22,11,7.20
2012,04,16,22,12,7.10
2012,04,16,22,13,7.10
2012,04,16,22,14,7.10
2012,04,16,22,15,7.10
2012,04,16,22,16,7.10
2012,04,16,22,17,7.10
2012,04,16,22,18,7.10
2012,04,16,22,19,7.10
2012,04,16,22,20,7.10
2012,04,16,22,21,7.10
2012,04,16,22,22,7.10
2012,04,16,22,23,7.10
2012,04,16,22,24,7.10
2012,04,16,22,25,7.10
2012,04,16,22,26,7.10
2012,04,16,22,27,7.10
2012,04,16,22,28,7.10
2012,04,16,22,29,7.00
2012,04,16,22,30,7.00
2012,04,16,22,31,7.00
2012,04,16,22,32,7.00
2012,04,16,22,33,7.00
2012,04,16,22,34,7.00
2012,04,16,22,35,6.90
2012,04,16,22,36,7.00
2012,04,16,22,37,7.00
2012,04,16,22,38,7.00
2012,04,16,22,39,7.00
2012,04,16,22,40,7.10
2012,04,16,22,41,7.10
2012,04,16,22,42,7.10
2012,04,16,22,43,7.10
2012,04,16,22,44,7.10
2012,04,16,22,45,7.20
2012,04,16,22,46,7.20
2012,04,16,22,47,7.20
2012,04,16,22,48,7.20
2012,04,16,22,49,7.20
2012,04,16,22,50,7.10
2012,04,16,22,51,7.00
2012,04,16,22,52,7.00
2012,04,16,22,53,6.90
2012,04,16,22,54,6.90
2012,04,16,22,55,6.90
2012,04,16,22,56,6.90
2012,04,16,22,57,6.80
2012,04,16,22,58,6.80
2012,04,16,22,59,6.80
2012,04,16,23,00,6.80
2012,04,16,23,01,6.80
2012,04,16,23,02,6.90
2012,04,16,23,03,6.90
2012,04,16,23,04,7.00
2012,04,16,23,05,7.00
2012,04,16,23,06,7.10
2012,04,16,23,07,7.20
2012,04,16,23,08,7.20
2012,04,16,23,09,7.20
2012,04,16,23,10,7.20
2012,04,16,23,11,7.20
2012,04,16,23,12,7.20
2012,04,16,23,13,7.20
2012,04,16,23,14,7.20
2012,04,16,23,15,7.20
2012,04,16,23,16,7.10
2012,04,16,23,17,7.10
2012,04,16,23,18,7.10
2012,04,16,23,19,7.10
2012,04,16,23,20,7.10
2012,04,16,23,21,7.10
2012,04,16,23,22,7.10
2012,04,16,23,23,7.10
2012,04,16,23,24,7.10
2012,04,16,23,25,7.10
2012,04,16,23,26,7.10
2012,04,16,23,27,7.10